Overview Statistics Trail Chart Weather Telemetry Raw packets
 

This is the latest recevied weather packets stored in our database for station/object KK6MIG-13. If no packets are shown the sender has not sent any weather packets the latest 10 day(s).

<< 342 343 344 345 346 347 348 >>
Time Temp. Humidity Pressure Rain* Wind** Luminosity Snow
1788209628 15.56° C 1% 1013.4 hPa 0 mm - 446 W/m² -
1788209562 15.56° C 1% 1013.4 hPa 0 mm - 476 W/m² -
1788209502 15.56° C 1% 1013.4 hPa 0 mm - 499 W/m² -
1788209443 15.56° C 1% 1013.4 hPa 0 mm - 464 W/m² -
1788209382 15.56° C 1% 1013.3 hPa 0 mm - 446 W/m² -
1788209322 15.56° C 1% 1013.3 hPa 0 mm - 418 W/m² -
1788209257 15.56° C 1% 1013.4 hPa 0 mm - 408 W/m² -
1788209197 15.56° C 1% 1013.3 hPa 0 mm - 431 W/m² -
1788209136 15.56° C 1% 1013.4 hPa 0 mm - 450 W/m² -
1788209076 15.56° C 1% 1013.3 hPa 0 mm - 448 W/m² -
1788209016 15.56° C 1% 1013.4 hPa 0 mm - 417 W/m² -
1788208953 15.56° C 3% 1013.3 hPa 0 mm - 424 W/m² -
1788208892 16.11° C 2% 1013.3 hPa 0 mm - 406 W/m² -
1788208833 16.11° C 1% 1013.2 hPa 0 mm - 429 W/m² -
1788208773 16.11° C 1% 1013.3 hPa 0 mm - 420 W/m² -
1788208713 16.11° C 1% 1013.3 hPa 0 mm - 417 W/m² -
1788208652 16.11° C 1% 1013.2 hPa 0 mm - 411 W/m² -
1788208592 16.11° C 2% 1013.3 hPa 0 mm - 399 W/m² -
1788208532 16.11° C 5% 1013.2 hPa 0 mm - 385 W/m² -
1788208473 16.11° C 5% 1013.3 hPa 0 mm - 406 W/m² -
1788208413 16.11° C 6% 1013.3 hPa 0 mm - 434 W/m² -
1788208353 16.11° C 6% 1013.3 hPa 0 mm - 464 W/m² -
1788208301 16.11° C 2% 1013.3 hPa 0 mm - 508 W/m² -
1788208296 16.11° C 3% 1013.2 hPa 0 mm - 485 W/m² -
1788208172 16.11° C 1% 1013.3 hPa 0 mm - 512 W/m² -

* Rain latest hour (hover to see other rain measurements)
** Current wind speed in m/s (hover to see current wind gust speed)